Weather in Novositovka

Russia / Tambov Oblast     52°39′38″N   40°02′19″E
temp.,
°C
wind,
m/s
gust,
m/s
humid.,
%
clouds,
%
prec.,
mm/h
press.,
hPa
HPBL,
m
4 march, thu
thu400:00−1w51093100 0.1 1014522
03:00−1wsw51189100 0.1 1012601
06:00−1wsw71490100 0.0 1010514
09:00−2wsw7158998 0.0 1008480
12:00+1wsw8158493 0.0 1007723
15:00+1wsw8148593 0.0 1004855
18:000wsw61289100 0.0 1003733
21:000w51193100 0.1 1002646
5 march, fri
fri500:000wsw5998100 0.4 1002453
03:00−1w4994100 0.8 1003397
06:00−3wnw4896100 0.3 1004342
09:00−4nnw369498 0.3 1007334
12:00−2nw348533 0.0 1010493
15:00−1wnw348527 0.0 1011602
18:00−4wnw2390100 0.0 101325
21:00−6nw229396 0.0 101523
6 march, sat
sat600:00−7nnw1292100 0.0 101622
03:00−7nne1193100 0.0 101621
06:00−8e1194100 0.0 101621
09:00−7ese1192100 0.0 101678
12:00−4se118893 0.0 1015257
15:00−4sse118691 0.1 1014339
18:00−5nnw019798 0.6 101440
21:00−7nw239585 1.3 101628
7 march, sun
sun700:00−8wnw489560 0.0 1017243
03:00−10wnw369178 0.1 1018148
06:00−11wsw47900 0.0 1017161
09:00−7sw7148338 0.0 1015555
12:00−4sw91574100 0.0 10111011
15:00−3sw101879100 0.0 10061331
18:00−3wsw101889100 0.8 10031202
21:00−4nw81393100 2.2 1004759
8 march, mon
mon800:00−6sw2385100 0.3 100544
03:00−6sw41091100 0.3 1004310
06:00−5ssw4895100 0.1 1001258
09:00−3wsw61085100 0.8 10011060
12:00−5wnw91470100 0.2 10031681
15:00−6wnw8137450 0.2 10071189
18:00−8wnw5118114 0.0 1010396
21:00−11w36867 0.0 1013100